Weather History for Abingdon, VA

Change the Weather History Date:

Sunday, November 4, 2012

  Actual Average (KTRI) Record (KTRI)
Temperature  
Mean Temperature 48 °F 50 °F  
Max Temperature 54 °F 63 °F 81 °F (2003)
Min Temperature 39 °F 38 °F 21 °F (1966)
Degree Days  
Heating Degree Days 18 15  
Month to date heating degree days 57  
Since 1 July heating degree days 392  
Cooling Degree Days 0 0  
Month to date cooling degree days 0  
Year to date cooling degree days 980  
Moisture  
Dew Point 43 °F    
Average Humidity 82    
Maximum Humidity 99    
Minimum Humidity 66    
Precipitation  
Precipitation 0.00 in 0.09 in 1.68 in (1985)
Month to date precipitation 0.36  
Year to date precipitation 34.90  
Snow  
Snow 0.00 in 0.00 in - ()
Month to date snowfall 0.0  
Since 1 July snowfall 0.1  
Since 1 September snowfall 0.1  
Snow Depth -    
Sea Level Pressure  
Sea Level Pressure 30.02 in    
Wind  
Wind Speed 4 mph (North)    
Max Wind Speed 12 mph    
Max Gust Speed -    
Visibility 10 miles    
Events      
T = Trace of Precipitation, MM = Missing Value Source: NWS Daily Summary

Daily Weather History Graph

Daily Weather History Graph

Search for Another Location

Airport:

Trip Planner

Search our weather history database for the weather conditions in past years. The results will help you decide how hot, cold, wet, or windy it might be!

Date:

Astronomy

Nov. 04, 2012 Rise Set
Actual Time 6:55 AM EST 5:27 PM EST
Civil Twilight 6:28 AM EST 5:54 PM EST
Nautical Twilight 5:57 AM EST 6:25 PM EST
Astronomical Twilight 5:27 AM EST 6:55 PM EST
Moon 10:05 PM EST (11/4) 11:36 AM EST (11/4)
Length of Visible Light 11h 26m
Length of Day
10h 32m
Waning Gibbous, 72% of the Moon is Illuminated
Nov 4
Waning Gibbous
Nov 6
Last Quarter
Nov 13
New
Nov 20
First Quarter
Nov 28
Full

Hourly Weather History & Observations

Time (EST) Temp. Windchill Dew Point Humidity Pressure Visibility Wind Dir Wind Speed Gust Speed Precip Events Conditions
12:15 AM 46.8 °F - 43.5 °F 88% 30.02 in 10.0 mi East 9.2 mph - N/A   Overcast
12:35 AM 46.9 °F - 43.3 °F 87% 30.02 in 10.0 mi ENE 5.8 mph - N/A   Overcast
12:55 AM 47.3 °F - 43.2 °F 86% 30.01 in 10.0 mi East 8.1 mph - N/A   Overcast
1:15 AM 46.8 °F - 43.2 °F 87% 30.01 in 10.0 mi ENE 3.5 mph - N/A   Overcast
1:35 AM 46.4 °F 42.9 °F 43.3 °F 89% 30.00 in 10.0 mi East 6.9 mph - N/A   Overcast
1:55 AM 46.2 °F 43.3 °F 43.2 °F 89% 29.99 in 10.0 mi ENE 5.8 mph - N/A   Overcast
1:15 AM 46.4 °F 44.3 °F 43.2 °F 88% 29.99 in 10.0 mi East 4.6 mph - N/A   Overcast
1:35 AM 46.4 °F 42.9 °F 43.0 °F 88% 29.99 in 10.0 mi East 6.9 mph - N/A   Overcast
1:55 AM 47.3 °F - 43.0 °F 85% 29.99 in 10.0 mi ENE 5.8 mph - N/A   Overcast
2:15 AM 48.2 °F - 43.7 °F 84% 29.99 in 10.0 mi Calm Calm - N/A   Overcast
2:35 AM 47.8 °F - 44.2 °F 87% 29.98 in 10.0 mi ESE 3.5 mph - N/A   Overcast
2:55 AM 47.7 °F - 44.6 °F 89% 29.98 in 10.0 mi East 3.5 mph - N/A   Overcast
3:15 AM 48.2 °F - 44.4 °F 87% 29.98 in 10.0 mi East 3.5 mph - N/A   Overcast
3:35 AM 47.8 °F - 44.6 °F 89% 29.98 in 10.0 mi Calm Calm - N/A   Overcast
3:55 AM 47.3 °F - 44.6 °F 90% 29.98 in 10.0 mi East 3.5 mph - N/A   Overcast
4:15 AM 47.1 °F - 44.4 °F 90% 29.98 in 10.0 mi Calm Calm - N/A   Overcast
4:35 AM 47.3 °F - 44.2 °F 89% 29.98 in 10.0 mi Calm Calm - N/A   Overcast
4:55 AM 47.3 °F - 44.8 °F 91% 29.99 in 10.0 mi Calm Calm - N/A   Overcast
5:15 AM 46.9 °F - 44.6 °F 92% 29.99 in 10.0 mi Calm Calm - N/A   Overcast
5:35 AM 46.4 °F - 44.6 °F 93% 29.99 in 10.0 mi Calm Calm - N/A   Overcast
5:55 AM 46.6 °F - 44.1 °F 91% 29.99 in 10.0 mi Calm Calm - N/A   Overcast
6:15 AM 45.0 °F - 43.7 °F 95% 29.99 in 10.0 mi Calm Calm - N/A   Mostly Cloudy
6:35 AM 44.8 °F - 43.9 °F 97% 29.99 in 10.0 mi Calm Calm - N/A   Overcast
6:55 AM 45.0 °F - 44.2 °F 97% 30.00 in 10.0 mi Calm Calm - N/A   Overcast
7:15 AM 45.5 °F - 44.4 °F 96% 30.00 in 10.0 mi Calm Calm - N/A   Overcast
7:35 AM 44.8 °F - 44.6 °F 99% 30.01 in 10.0 mi Calm Calm - N/A   Overcast
7:55 AM 45.3 °F - 45.1 °F 99% 30.02 in 10.0 mi Calm Calm - N/A   Overcast
8:15 AM 46.6 °F - 45.7 °F 97% 30.02 in 10.0 mi Calm Calm - N/A   Overcast
8:35 AM 47.8 °F - 46.0 °F 93% 30.03 in 10.0 mi Calm Calm - N/A   Overcast
8:55 AM 49.3 °F - 46.6 °F 90% 30.02 in 10.0 mi Calm Calm - N/A   Overcast
9:15 AM 49.8 °F - 46.0 °F 87% 30.02 in 10.0 mi North 3.5 mph - N/A   Overcast
9:35 AM 50.2 °F - 46.4 °F 87% 30.02 in 10.0 mi North 3.5 mph - N/A   Overcast
9:55 AM 50.2 °F - 46.8 °F 88% 30.02 in 10.0 mi North 3.5 mph - N/A   Overcast
10:15 AM 50.9 °F - 46.0 °F 83% 30.02 in 10.0 mi North 3.5 mph - N/A   Scattered Clouds
10:35 AM 51.1 °F - 45.9 °F 82% 30.03 in 10.0 mi North 3.5 mph - N/A   Scattered Clouds
10:55 AM 51.6 °F - 45.7 °F 80% 30.03 in 10.0 mi NNW 3.5 mph - N/A   Scattered Clouds
11:15 AM 52.2 °F - 45.9 °F 79% 30.03 in 10.0 mi West 3.5 mph - N/A   Overcast
11:35 AM 52.2 °F - 45.5 °F 78% 30.02 in 10.0 mi NW 4.6 mph - N/A   Overcast
11:55 AM 52.3 °F - 45.3 °F 77% 30.02 in 10.0 mi NNW 4.6 mph - N/A   Overcast
12:15 PM 51.8 °F - 44.6 °F 76% 30.02 in 10.0 mi NW 8.1 mph - N/A   Mostly Cloudy
12:35 PM 52.3 °F - 44.6 °F 75% 30.01 in 10.0 mi NNW 5.8 mph - N/A   Scattered Clouds
12:55 PM 53.4 °F - 44.4 °F 72% 30.01 in 10.0 mi North 5.8 mph - N/A   Clear
1:15 PM 53.6 °F - 44.4 °F 71% 30.00 in 10.0 mi NNW 4.6 mph - N/A   Clear
1:35 PM 53.8 °F - 43.5 °F 68% 30.00 in 10.0 mi NW 8.1 mph - N/A   Clear
1:55 PM 54.5 °F - 43.5 °F 66% 30.00 in 10.0 mi NW 8.1 mph - N/A   Scattered Clouds
2:15 PM 52.5 °F - 42.3 °F 68% 30.01 in 10.0 mi NW 6.9 mph - N/A   Overcast
2:35 PM 51.3 °F - 41.9 °F 70% 30.01 in 10.0 mi NNW 10.4 mph - N/A   Overcast
2:55 PM 50.9 °F - 41.9 °F 71% 30.01 in 10.0 mi NW 6.9 mph - N/A   Overcast
3:15 PM 50.9 °F - 42.3 °F 72% 30.01 in 10.0 mi WNW 3.5 mph - N/A   Overcast
3:35 PM 51.4 °F - 42.1 °F 70% 30.01 in 10.0 mi NW 11.5 mph - N/A   Overcast
3:55 PM 51.1 °F - 41.7 °F 70% 30.01 in 10.0 mi West 6.9 mph - N/A   Overcast
4:15 PM 50.9 °F - 41.0 °F 69% 30.02 in 10.0 mi NNW 10.4 mph - N/A   Overcast
4:35 PM 48.9 °F - 40.6 °F 73% 30.02 in 10.0 mi NNW 4.6 mph - N/A   Overcast
4:55 PM 48.4 °F - 40.3 °F 74% 30.02 in 10.0 mi NNW 5.8 mph - N/A   Overcast
5:15 PM 48.4 °F - 40.1 °F 73% 30.02 in 10.0 mi NNW 5.8 mph - N/A   Overcast
5:35 PM 47.8 °F - 39.6 °F 73% 30.02 in 10.0 mi North 5.8 mph - N/A   Overcast
5:55 PM 47.1 °F - 39.2 °F 74% 30.03 in 10.0 mi North 6.9 mph - N/A   Overcast
6:15 PM 46.4 °F 42.9 °F 39.2 °F 76% 30.04 in 10.0 mi North 6.9 mph - N/A   Overcast
6:35 PM 46.0 °F 43.9 °F 38.3 °F 74% 30.05 in 10.0 mi North 4.6 mph - N/A   Overcast
6:55 PM 45.9 °F - 37.2 °F 72% 30.05 in 10.0 mi Calm Calm - N/A   Overcast
7:15 PM 45.9 °F - 37.4 °F 72% 30.05 in 10.0 mi Calm Calm - N/A   Overcast
7:35 PM 45.9 °F - 37.6 °F 73% 30.05 in 10.0 mi Calm Calm - N/A   Overcast
7:55 PM 45.7 °F 44.4 °F 37.9 °F 74% 30.06 in 10.0 mi SE 3.5 mph - N/A   Overcast
8:15 PM 45.5 °F 44.2 °F 38.1 °F 75% 30.06 in 10.0 mi East 3.5 mph - N/A   Overcast
8:35 PM 45.5 °F 44.2 °F 38.5 °F 76% 30.06 in 10.0 mi East 3.5 mph - N/A   Overcast
8:55 PM 45.1 °F - 38.3 °F 77% 30.06 in 10.0 mi Calm Calm - N/A   Overcast
9:15 PM 44.6 °F - 37.9 °F 77% 30.06 in 10.0 mi Calm Calm - N/A   Mostly Cloudy
9:35 PM 43.3 °F - 38.1 °F 82% 30.06 in 10.0 mi Calm Calm - N/A   Mostly Cloudy
9:55 PM 42.4 °F - 38.5 °F 86% 30.06 in 10.0 mi Calm Calm - N/A   Mostly Cloudy
10:15 PM 41.5 °F - 38.3 °F 88% 30.06 in 10.0 mi Calm Calm - N/A   Mostly Cloudy
10:35 PM 41.0 °F - 37.9 °F 89% 30.06 in 10.0 mi Calm Calm - N/A   Scattered Clouds
10:55 PM 39.6 °F - 37.4 °F 92% 30.06 in 10.0 mi Calm Calm - N/A   Scattered Clouds